Flag for Cayman Islands Weather past 2 weeks in George Town, Cayman Islands

Now
82 °F

Passing clouds.


Feels Like: 91 °F
Forecast: 83 / 86 °F
Wind: 7 mph from Southeast

Location: Owen Roberts Airportgrand Cayman

Current Time: Aug 20, 2014 at 10:20:47 PM

Latest Report: Aug 20, 2014 at 10:00 PM


Visibility: N/A

Pressure: 30.01 "Hg

Humidity: 84%

Dew point: 77 °F

Location of George TownLocation

Historic Weather in George Town — Graph

°F

George Town temperature yesterday

Maximum temperature yesterday: 90 °F (at 11:00 AM)
Minimum temperature yesterday: 82 °F (at 6:00 AM)
Average temperature yesterday: 87 °F

Past Weeks' High & Low Weather Summary

 TemperatureHumidityPressure
High91 °F (Aug 9, 2:00 PM)100% (Aug 10, 9:00 PM)30.04 "Hg (Aug 10, 9:00 PM)
Low77 °F (Aug 8, 6:00 AM)15% (Aug 6, 12:00 PM)29.92 "Hg (Aug 7, 2:00 PM)
Average86 °F79%29.99 "Hg
* Reported Aug 5 9:00 PM — Aug 20 9:00 PM, George Town, Weather by CustomWeather, © 2014

Note: Actual official high and low records may vary slightly from our data, if they occured in-between our weather recording intervals... More about our weather records

Advertising

George Town weather history for previous 24 hours

 ConditionsComfort  
Time TempWeatherWind HumidityBarometerVisibility
9:00 PM
Aug 20
82 °FPassing clouds.7 mph84%30.01 "HgN/A
8:00 PM84 °FPassing clouds.7 mph66%30.01 "HgN/A
7:00 PM86 °FThunderstorms. Passing clouds.12 mph84%29.98 "HgN/A
6:00 PM88 °FPassing clouds.12 mph70%29.98 "HgN/A
5:00 PM88 °FPassing clouds.13 mph79%29.98 "HgN/A
3:00 PM90 °FPassing clouds.15 mph75%29.98 "HgN/A
2:00 PM91 °FScattered clouds.15 mph71%30.01 "HgN/A
1:00 PM90 °FScattered clouds.10 mph75%30.01 "HgN/A
12:00 PM90 °FScattered clouds.9 mph75%30.01 "HgN/A
11:00 AM90 °FScattered clouds.9 mph79%30.01 "HgN/A
10:00 AM88 °FScattered clouds.10 mph79%30.01 "HgN/A
9:00 AM88 °FPassing clouds.7 mph79%30.01 "HgN/A
8:00 AM86 °FScattered clouds.5 mph84%29.98 "HgN/A
7:00 AM84 °FPassing clouds.3 mph89%29.98 "HgN/A
6:00 AM82 °FPassing clouds.No wind94%29.95 "HgN/A
10:00 PM
Aug 19
84 °FPassing clouds.5 mph89%29.98 "HgN/A
Weather by CustomWeather, © 2014

See weather overviewHow to use our weather pages